TimeEDT,TemperatureF,Dew PointF,Humidity,Sea Level PressureIn,VisibilityMPH,Wind Direction,Wind SpeedMPH,Gust SpeedMPH,PrecipitationIn,Events,Conditions,WindDirDegrees,DateUTC
12:15 AM,39.2,37.4,93,29.13,3.0,North,24.2,35.7,0.01,,Overcast,360,2012-10-30 04:15:00
12:35 AM,39.2,37.4,93,29.11,5.0,North,26.5,33.4,0.01,,Overcast,360,2012-10-30 04:35:00
12:55 AM,39.2,37.4,93,29.09,5.0,North,28.8,41.4,0.02,,Overcast,350,2012-10-30 04:55:00
1:15 AM,39.2,37.4,93,29.07,5.0,North,25.3,41.4,0.01,,Overcast,360,2012-10-30 05:15:00
1:35 AM,41.0,39.2,93,29.05,6.0,North,25.3,40.3,0.02,,Overcast,360,2012-10-30 05:35:00
1:55 AM,41.0,39.2,93,29.04,4.0,North,26.5,38.0,0.03,,Overcast,360,2012-10-30 05:55:00
2:15 AM,42.8,39.2,87,29.03,5.0,North,24.2,38.0,0.01,,Overcast,360,2012-10-30 06:15:00
2:35 AM,42.8,41.0,93,29.02,5.0,North,24.2,39.1,0.01,,Overcast,360,2012-10-30 06:35:00
2:55 AM,44.6,42.8,93,29.00,6.0,North,24.2,39.1,0.02,,Overcast,10,2012-10-30 06:55:00
3:55 AM,46.4,44.6,93,28.97,5.0,North,24.2,33.4,0.02,,Overcast,10,2012-10-30 07:55:00
4:15 AM,46.4,44.6,93,28.97,8.0,NNE,20.7,31.1,0.01,,Overcast,20,2012-10-30 08:15:00
4:55 AM,48.2,46.4,93,28.98,8.0,NE,20.7,26.5,0.05,,Overcast,40,2012-10-30 08:55:00
5:15 AM,48.2,46.4,93,28.98,10.0,NE,16.1,26.5,N/A,,Overcast,50,2012-10-30 09:15:00
5:35 AM,48.2,44.6,87,29.00,10.0,NE,13.8,23.0,0.01,,Mostly Cloudy,50,2012-10-30 09:35:00
5:55 AM,48.2,46.4,93,29.01,10.0,NE,15.0,19.6,0.01,,Mostly Cloudy,40,2012-10-30 09:55:00
6:15 AM,48.2,44.6,87,29.02,10.0,NE,15.0,-,N/A,,Overcast,50,2012-10-30 10:15:00
6:35 AM,48.2,44.6,87,29.03,10.0,ENE,11.5,-,0.01,,Overcast,60,2012-10-30 10:35:00
6:55 AM,48.2,44.6,87,29.04,10.0,NE,13.8,20.7,0.01,,Overcast,50,2012-10-30 10:55:00
7:15 AM,48.2,44.6,87,29.05,10.0,ENE,13.8,20.7,N/A,,Overcast,60,2012-10-30 11:15:00
7:35 AM,48.2,42.8,82,29.06,10.0,NE,15.0,19.6,N/A,,Overcast,50,2012-10-30 11:35:00
7:55 AM,48.2,42.8,82,29.07,9.0,ENE,8.1,17.3,N/A,,Mostly Cloudy,70,2012-10-30 11:55:00
8:15 AM,46.4,42.8,87,29.09,5.0,East,6.9,-,0.02,,Overcast,80,2012-10-30 12:15:00
8:35 AM,46.4,42.8,87,29.09,10.0,ENE,12.7,18.4,0.02,,Mostly Cloudy,70,2012-10-30 12:35:00
8:55 AM,46.4,42.8,87,29.10,10.0,NE,8.1,16.1,0.02,,Mostly Cloudy,50,2012-10-30 12:55:00
9:35 AM,46.4,42.8,87,29.12,10.0,ENE,8.1,-,N/A,,Mostly Cloudy,70,2012-10-30 13:35:00
9:55 AM,46.4,42.8,87,29.12,10.0,East,5.8,-,N/A,,Overcast,80,2012-10-30 13:55:00
10:15 AM,46.4,41.0,81,29.13,10.0,East,8.1,-,N/A,,Overcast,90,2012-10-30 14:15:00
10:35 AM,46.4,41.0,81,29.13,10.0,East,9.2,-,N/A,,Overcast,80,2012-10-30 14:35:00
10:55 AM,46.4,41.0,81,29.14,10.0,ENE,11.5,-,N/A,,Mostly Cloudy,70,2012-10-30 14:55:00
11:15 AM,46.4,39.2,76,29.15,10.0,East,8.1,-,N/A,,Overcast,80,2012-10-30 15:15:00
11:35 AM,46.4,41.0,81,29.16,10.0,East,11.5,16.1,N/A,,Mostly Cloudy,80,2012-10-30 15:35:00
11:55 AM,46.4,39.2,76,29.17,10.0,ENE,10.4,-,N/A,,Overcast,60,2012-10-30 15:55:00
12:15 PM,46.4,39.2,76,29.17,10.0,ENE,10.4,-,N/A,,Mostly Cloudy,70,2012-10-30 16:15:00
12:35 PM,46.4,37.4,71,29.17,10.0,East,10.4,16.1,N/A,,Mostly Cloudy,90,2012-10-30 16:35:00
12:55 PM,46.4,37.4,71,29.18,10.0,East,11.5,18.4,N/A,,Mostly Cloudy,90,2012-10-30 16:55:00
1:15 PM,46.4,37.4,71,29.18,10.0,ESE,12.7,-,N/A,,Mostly Cloudy,110,2012-10-30 17:15:00
1:35 PM,46.4,37.4,71,29.19,10.0,East,13.8,19.6,0.01,,Overcast,90,2012-10-30 17:35:00
1:55 PM,44.6,39.2,81,29.19,10.0,East,6.9,-,0.02,,Overcast,90,2012-10-30 17:55:00
2:15 PM,44.6,39.2,81,29.20,10.0,East,6.9,-,N/A,,Overcast,80,2012-10-30 18:15:00
2:35 PM,44.6,39.2,81,29.20,10.0,East,8.1,-,N/A,,Mostly Cloudy,90,2012-10-30 18:35:00
2:55 PM,44.6,37.4,76,29.20,10.0,East,6.9,-,N/A,,Overcast,90,2012-10-30 18:55:00
3:15 PM,44.6,37.4,76,29.21,10.0,ESE,8.1,-,N/A,,Overcast,110,2012-10-30 19:15:00
3:35 PM,44.6,37.4,76,29.22,10.0,East,9.2,-,N/A,,Overcast,90,2012-10-30 19:35:00
3:55 PM,44.6,37.4,76,29.22,10.0,East,5.8,-,N/A,,Overcast,80,2012-10-30 19:55:00
4:15 PM,44.6,37.4,76,29.23,10.0,ENE,8.1,-,N/A,,Overcast,70,2012-10-30 20:15:00
4:35 PM,44.6,35.6,71,29.24,10.0,East,11.5,-,N/A,,Overcast,100,2012-10-30 20:35:00
4:55 PM,42.8,33.8,70,29.25,10.0,ESE,10.4,-,N/A,,Overcast,120,2012-10-30 20:55:00
5:15 PM,42.8,35.6,76,29.25,10.0,ESE,6.9,-,N/A,,Overcast,110,2012-10-30 21:15:00
5:35 PM,42.8,33.8,70,29.26,10.0,ESE,10.4,-,N/A,,Overcast,110,2012-10-30 21:35:00
5:55 PM,42.8,33.8,70,29.27,10.0,SE,6.9,-,N/A,,Mostly Cloudy,130,2012-10-30 21:55:00
6:15 PM,42.8,33.8,70,29.28,10.0,SE,5.8,-,N/A,,Overcast,130,2012-10-30 22:15:00
6:35 PM,42.8,33.8,70,29.29,10.0,SE,8.1,-,N/A,,Overcast,130,2012-10-30 22:35:00
6:55 PM,41.0,33.8,76,29.30,10.0,SE,8.1,-,N/A,,Overcast,140,2012-10-30 22:55:00
7:15 PM,41.0,33.8,76,29.30,10.0,SE,4.6,-,N/A,,Overcast,140,2012-10-30 23:15:00
7:35 PM,41.0,33.8,76,29.31,10.0,SSE,3.5,-,N/A,,Overcast,150,2012-10-30 23:35:00
7:55 PM,41.0,33.8,76,29.32,10.0,SE,4.6,-,N/A,,Mostly Cloudy,130,2012-10-30 23:55:00
8:15 PM,39.2,32.0,75,29.33,10.0,SSE,4.6,-,N/A,,Mostly Cloudy,150,2012-10-31 00:15:00
8:35 PM,39.2,33.8,81,29.33,10.0,SE,5.8,-,N/A,,Overcast,140,2012-10-31 00:35:00
8:55 PM,39.2,32.0,75,29.34,10.0,SSE,8.1,-,N/A,,Overcast,150,2012-10-31 00:55:00
9:15 PM,39.2,32.0,75,29.35,10.0,South,6.9,-,N/A,,Mostly Cloudy,180,2012-10-31 01:15:00
9:35 PM,37.4,33.8,87,29.35,10.0,South,6.9,-,N/A,,Overcast,170,2012-10-31 01:35:00
9:55 PM,37.4,33.8,87,29.35,10.0,South,5.8,-,N/A,,Overcast,170,2012-10-31 01:55:00
10:15 PM,37.4,32.0,81,29.35,10.0,South,6.9,-,N/A,,Overcast,170,2012-10-31 02:15:00
10:35 PM,37.4,32.0,81,29.35,10.0,SSE,8.1,-,N/A,,Overcast,160,2012-10-31 02:35:00
10:55 PM,37.4,32.0,81,29.35,10.0,South,5.8,-,N/A,,Overcast,170,2012-10-31 02:55:00
11:15 PM,37.4,32.0,81,29.36,10.0,South,6.9,-,N/A,,Overcast,180,2012-10-31 03:15:00
11:35 PM,37.4,32.0,81,29.36,10.0,SSE,5.8,-,N/A,,Mostly Cloudy,160,2012-10-31 03:35:00
11:55 PM,37.4,32.0,81,29.35,10.0,SSE,3.5,-,N/A,,Mostly Cloudy,150,2012-10-31 03:55:00